Flag for Pakistan Weather past 2 weeks in Islamabad, Pakistan

Now
66 °F

Passing clouds.


Feels Like: 66 °F
Forecast: 48 / 70 °F
Wind: 7 mph from Southeast

Location: Islamabad Airport

Current Time: Feb 27, 2015 at 5:40:58 PM

Latest Report: Feb 27, 2015 at 5:00 PM


Visibility: N/A

Pressure: 29.98 "Hg

Humidity: 40%

Dew point: 41 °F

Location of IslamabadLocation

Historic Weather in Islamabad — Graph

°F

Islamabad temperature yesterday

Maximum temperature yesterday: 64 °F (at 1:00 PM)
Minimum temperature yesterday: 46 °F (at 6:00 AM)
Average temperature yesterday: 55 °F

Past Weeks' High & Low Weather Summary

 TemperatureHumidityPressure
High77 °F (Feb 13, 3:00 PM)100% (Feb 22, 7:00 AM)30.15 "Hg (Feb 22, 7:00 AM)
Low46 °F (Feb 13, 6:00 AM)24% (Feb 14, 3:00 PM)29.68 "Hg (Feb 25, 5:00 AM)
Average60 °F71%29.97 "Hg
* Reported Feb 12 5:00 PM — Feb 27 4:00 PM, Islamabad, Weather by CustomWeather, © 2015

Note: Actual official high and low records may vary slightly from our data, if they occured in-between our weather recording intervals... More about our weather records

Advertising

Islamabad weather history for previous 24 hours

 ConditionsComfort  
Time TempWeatherWind HumidityBarometerVisibility
4:00 PM
Fri, Feb 27
68 °FSunny.7 mph35%29.98 "Hg10 mi
3:00 PM68 °FSunny.7 mph40%29.98 "Hg10 mi
2:00 PM68 °FPassing clouds.14 mph40%30.01 "Hg4 mi
1:00 PM70 °FHaze.9 mph40%30.01 "Hg3 mi
12:00 PM66 °FHaze.7 mph46%30.04 "Hg3 mi
10:00 AM59 °FSunny.No wind55%30.01 "Hg3 mi
9:00 AM52 °FSunny.No wind77%30.01 "Hg2 mi
8:00 AM48 °FFog.No wind82%29.98 "Hg2 mi
7:00 AM48 °FFog.No wind82%29.95 "Hg2 mi
6:00 AM48 °FPassing clouds.No wind82%29.95 "Hg3 mi
5:00 AM48 °FPassing clouds.No wind87%29.92 "Hg4 mi
4:00 AM50 °FPassing clouds.No wind82%29.92 "Hg4 mi
3:00 AM50 °FPassing clouds.No wind82%29.92 "Hg4 mi
2:00 AM52 °FPassing clouds.No wind82%29.92 "Hg4 mi
1:00 AM52 °FPassing clouds.7 mph77%29.92 "Hg4 mi
12:00 AM52 °FPassing clouds.7 mph77%29.92 "Hg4 mi
11:00 PM
Thu, Feb 26
52 °FPassing clouds.7 mph77%29.92 "Hg4 mi
10:00 PM55 °FPassing clouds.7 mph67%29.92 "Hg4 mi
9:00 PM55 °FPassing clouds.9 mph67%29.92 "Hg4 mi
8:00 PM55 °FPassing clouds.12 mph67%29.89 "Hg4 mi
7:00 PM57 °FPassing clouds.12 mph63%29.86 "Hg4 mi
6:00 PM59 °FScattered clouds.16 mph59%29.86 "Hg4 mi
Weather by CustomWeather, © 2015

See weather overviewHow to use our weather pages